GW2492 Weather Reports


Display with metric or nautical units.
time (UTC)temp
F
wind
direction
speed
MPH
gust
MPH
rain 1hr
in
rain 24hr
in
rain mn
in
humidity
%
barometer
mb
20260831234559 96 99 11.0 19.0 0.00 0.00 0.00 37 1013.7
20260831233055 97 109 13.0 21.0 0.00 0.00 0.00 35 1013.7
20260831231549 96 101 6.0 17.0 0.00 0.00 0.00 35 1013.9
20260831230057 97 112 11.0 19.0 0.00 0.00 0.00 34 1014.1
20260831224557 97 109 12.0 19.0 0.00 0.00 0.00 35 1013.9
20260831223054 97 82 9.0 15.0 0.00 0.00 0.00 34 1014.0
20260831221610 97 144 2.0 14.0 0.00 0.00 0.00 34 1014.1
20260831220049 97 142 9.0 25.0 0.00 0.00 0.00 33 1014.4
20260831214554 97 197 6.0 14.0 0.00 0.00 0.00 37 1014.5
20260831213055 96 109 10.0 15.0 0.00 0.00 0.00 35 1014.7
20260831211549 96 113 8.0 16.0 0.00 0.00 0.00 35 1015.0
20260831210049 97 157 4.0 15.0 0.00 0.00 0.00 34 1015.1
20260831204544 97 144 6.0 14.0 0.00 0.00 0.00 34 1015.2
20260831203125 95 142 2.0 12.0 0.00 0.00 0.00 37 1015.4
20260831201602 96 178 6.0 16.0 0.00 0.00 0.00 34 1015.6
20260831200139 96 173 2.0 16.0 0.00 0.00 0.00 36 1015.8
20260831194559 95 251 5.0 12.0 0.00 0.00 0.00 36 1016.1
20260831193054 95 197 9.0 16.0 0.00 0.00 0.00 38 1016.3
20260831191554 94 67 6.0 17.0 0.00 0.00 0.00 39 1016.5
20260831190049 95 109 7.0 19.0 0.00 0.00 0.00 38 1016.8
20260831184558 94 146 3.0 15.0 0.00 0.00 0.00 40 1017.0
20260831183104 93 140 3.0 16.0 0.00 0.00 0.00 40 1017.2
20260831181554 92 170 10.0 16.0 0.00 0.00 0.00 40 1017.5
20260831180110 91 169 8.0 16.0 0.00 0.00 0.00 45 1017.7
20260831174554 91 181 8.0 14.0 0.00 0.00 0.00 46 1017.8
20260831173102 92 117 13.0 19.0 0.00 0.00 0.00 45 1017.9
20260831171556 91 159 12.0 18.0 0.00 0.00 0.00 48 1017.9
20260831170113 91 213 10.0 17.0 0.00 0.00 0.00 50 1018.0
20260831164553 89 189 8.0 15.0 0.00 0.00 0.00 52 1018.1
20260831163050 89 194 8.0 14.0 0.00 0.00 0.00 53 1018.2
20260831161550 88 183 9.0 14.0 0.00 0.00 0.00 54 1018.1
20260831160100 87 173 10.0 14.0 0.00 0.00 0.00 56 1018.0
20260831154615 86 207 7.0 11.0 0.00 0.00 0.00 58 1017.9
20260831153055 85 219 5.0 12.0 0.00 0.00 0.00 58 1017.8
20260831151547 84 202 10.0 18.0 0.00 0.00 0.00 58 1017.8
20260831150047 83 203 12.0 18.0 0.00 0.00 0.00 60 1017.7
20260831144555 83 182 17.0 23.0 0.00 0.00 0.00 60 1017.5
20260831143049 81 198 15.0 27.0 0.00 0.00 0.00 64 1017.6
20260831141553 80 198 17.0 25.0 0.00 0.00 0.00 67 1017.6
20260831140058 80 203 15.0 22.0 0.00 0.00 0.00 69 1017.4
20260831134601 79 181 13.0 22.0 0.00 0.00 0.00 70 1017.4
20260831133057 78 203 13.0 19.0 0.00 0.00 0.00 72 1017.3
20260831131559 77 187 15.0 22.0 0.00 0.00 0.00 74 1017.0
20260831130054 77 193 15.0 22.0 0.00 0.00 0.00 75 1016.7
20260831124544 76 166 10.0 17.0 0.00 0.00 0.00 76 1016.7
20260831123057 76 189 13.0 20.0 0.00 0.00 0.00 76 1016.4
20260831121555 76 186 12.0 20.0 0.00 0.00 0.00 75 1016.2
20260831120114 76 183 13.0 21.0 0.00 0.00 0.00 75 1016.0
20260831114550 76 178 15.0 24.0 0.00 0.00 0.00 74 1016.0
20260831113103 76 180 15.0 25.0 0.00 0.00 0.00 73 1015.8
20260831111557 77 191 14.0 23.0 0.00 0.00 0.00 72 1016.0
20260831110051 77 181 14.0 24.0 0.00 0.00 0.00 71 1016.1
20260831104602 77 168 14.0 26.0 0.00 0.00 0.00 69 1016.0
20260831103045 78 179 18.0 23.0 0.00 0.00 0.00 68 1016.0
20260831101604 78 174 16.0 22.0 0.00 0.00 0.00 68 1016.0
20260831094559 78 184 15.0 26.0 0.00 0.00 0.00 69 1016.0
20260831093058 78 184 16.0 25.0 0.00 0.00 0.00 70 1015.8
20260831091550 78 170 17.0 23.0 0.00 0.00 0.00 70 1015.8
20260831090100 79 154 18.0 26.0 0.00 0.00 0.00 69 1015.8
20260831084608 79 159 17.0 23.0 0.00 0.00 0.00 68 1015.7
20260831083048 79 155 14.0 21.0 0.00 0.00 0.00 67 1015.8
20260831081555 79 185 12.0 21.0 0.00 0.00 0.00 65 1015.7
20260831080050 80 151 14.0 22.0 0.00 0.00 0.00 64 1015.6
20260831074600 80 142 14.0 21.0 0.00 0.00 0.00 62 1015.6
20260831073058 81 150 15.0 21.0 0.00 0.00 0.00 60 1015.6
20260831071607 81 148 14.0 19.0 0.00 0.00 0.00 59 1015.6
20260831070109 81 146 14.0 19.0 0.00 0.00 0.00 59 1015.6
20260831064557 81 154 13.0 18.0 0.00 0.00 0.00 58 1015.6
20260831063057 81 154 11.0 15.0 0.00 0.00 0.00 58 1015.6
20260831061606 82 148 11.0 14.0 0.00 0.00 0.00 57 1015.6
20260831060058 82 151 10.0 15.0 0.00 0.00 0.00 56 1015.6
20260831054548 83 163 10.0 15.0 0.00 0.00 0.00 56 1015.7
20260831053131 83 143 10.0 15.0 0.00 0.00 0.00 55 1015.6
20260831051603 84 153 10.0 18.0 0.00 0.00 0.00 54 1015.7
20260831050052 84 151 11.0 16.0 0.00 0.00 0.00 53 1015.7
20260831044557 84 168 10.0 16.0 0.00 0.00 0.00 53 1015.7
20260831043058 85 154 13.0 16.0 0.00 0.00 0.00 52 1015.7
20260831041615 85 159 12.0 18.0 0.00 0.00 0.00 53 1015.7
20260831034559 86 162 12.0 21.0 0.00 0.00 0.00 51 1015.6
20260831033111 86 155 11.0 15.0 0.00 0.00 0.00 49 1015.5
20260831031555 87 153 14.0 19.0 0.00 0.00 0.00 47 1015.2
20260831030051 87 144 13.0 17.0 0.00 0.00 0.00 45 1015.1
20260831024555 88 129 8.0 12.0 0.00 0.00 0.00 43 1014.7
20260831023058 88 142 9.0 14.0 0.00 0.00 0.00 42 1014.4
20260831021555 89 150 9.0 14.0 0.00 0.00 0.00 41 1014.2
20260831020106 89 146 8.0 13.0 0.00 0.00 0.00 40 1014.0
20260831014558 91 144 8.0 15.0 0.00 0.00 0.00 39 1013.8
20260831013100 92 157 10.0 15.0 0.00 0.00 0.00 38 1013.8
20260831011552 92 135 8.0 14.0 0.00 0.00 0.00 37 1013.8
20260831010050 93 132 8.0 12.0 0.00 0.00 0.00 36 1013.7
20260831004600 94 148 11.0 15.0 0.00 0.00 0.00 35 1013.5
20260831003058 95 146 9.0 13.0 0.00 0.00 0.00 35 1013.5
20260831001555 95 150 11.0 14.0 0.00 0.00 0.00 35 1013.3
20260831000050 96 173 10.0 18.0 0.00 0.00 0.00 35 1013.2